Select Weather Forecast Office:  

NWS Baltimore, MD/Washington, DC/Sterling, VA Weather Forecast Office

NWS Regional Weather Roundup
County Warning Area [CWA]: LWX
Regional NWS Weather Office: Baltimore, MD/Washington, DC/Sterling, VA

000
ASUS41 KLWX 212211
RWRLWX

REGIONAL WEATHER ROUNDUP
NATIONAL WEATHER SERVICE BALTIMORE MD/WASHINGTON DC
600 PM EDT THU SEP 21 2017

Note: "FAIR" indicates few or no clouds below 12,000 feet
with no significant weather and/or obstructions to visibility.
 TC=TEMPERATURE CELSIUS

 * =Non NWS site. Station does not report precipitation (e.g. rain,
    snow, etc.), thunder, or fog.

DCZ001-MDZ009-015-VAZ040>042-051-053>054-212300-
WASHINGTON METRO

CITY           SKY/WX    TMP DP  RH WIND       PRES   REMARKS
WASHINGTON NAT MOSUNNY   85  65  51 NW8       30.01S
DULLES         PTSUNNY   83  63  50 N7        30.03R
ANDREWS AFB    MOSUNNY   83  64  52 NW9       30.00S
FT BELVOIR     SUNNY     84  63  48 NW6       30.01S
QUANTICO       SUNNY     84  65  52 NE3       30.02R
COLLEGE PARK*  MOSUNNY   82  65  55 N5        30.01S
LEESBURG*      MOSUNNY   82  64  54 N3        30.04S
MANASSAS*      SUNNY     84  63  49 N7        30.03R
GAITHERSBURG*  SUNNY     80  67  64 CALM      30.05R

$$

MDZ006>007-011-014-212300-
BALTIMORE METRO

CITY           SKY/WX    TMP DP  RH WIND       PRES   REMARKS
BWI AIRPORT    MOSUNNY   85  64  49 VRB6      30.00S
MD SCIENCE CTR   N/A     86  64  47 MISG      30.00R
MARTIN STATE   MOSUNNY   86  66  51 NW6       30.01S
ANNAPOLIS      SUNNY     82  71  69 SE7       30.00S
FORT MEADE*    SUNNY     79  66  65 NW3       30.03S

$$

MDZ012-015-019>023-212300-
MARYLAND EASTERN SHORE

CITY           SKY/WX    TMP DP  RH WIND       PRES   REMARKS
OCEAN CITY     SUNNY     75  67  76 E6        30.01R
SALISBURY      SUNNY     83  65  54 NE5       29.99R
CAMBRIDGE*     SUNNY     82  66  57 NW7       30.00S
EASTON*        MOSUNNY   84  64  51 N6        30.04R

$$

MDZ017>025-212300-
SOUTHERN MARYLAND

CITY           SKY/WX    TMP DP  RH WIND       PRES   REMARKS
PATUXENT RIVER MOSUNNY   82  63  52 N10       30.00S
ST INIGOES     SUNNY     82  64  54 VRB3      30.00R
LEONARDTOWN*   SUNNY     81  63  54 CALM      30.03R

$$

MDZ003>005-212300-
NORTH CENTRAL MARYLAND

CITY           SKY/WX    TMP DP  RH WIND       PRES   REMARKS
FREDERICK*     SUNNY     84  61  45 VRB3      30.05S
HAGERSTOWN APT SUNNY     85  57  38 N5        30.04S
WESTMINSTER*   SUNNY     82  64  54 CALM      30.05S

$$

MDZ501>502-212300-
WESTERN MARYLAND

CITY           SKY/WX    TMP DP  RH WIND       PRES   REMARKS
OAKLAND*       SUNNY     72  57  60 NW3       30.15S
CUMBERLAND*    SUNNY     86  55  35 N3        30.08S

$$

VAZ025>031-212300-
SHENANDOAH VALLEY

CITY           SKY/WX    TMP DP  RH WIND       PRES   REMARKS
WINCHESTER*    MOSUNNY   79  61  53 CALM      30.05R
FRONT ROYAL*   MOSUNNY   81  63  54 E3        30.04R
LURAY*         MOSUNNY   82  61  47 NE3       30.04S
NEW MARKET*    MOSUNNY   85  56  38 NE6       30.03S
STAUNTON*      PTSUNNY   82  59  46 E3        30.07S
WAYNESBORO*    CLOUDY    82  60  47 CALM      30.07S

$$

WVZ021-048>050-054>055-212300-
EASTERN WEST VIRGINIA PANHANDLE

CITY           SKY/WX    TMP DP  RH WIND       PRES   REMARKS
MARTINSBURG    MOSUNNY   84  58  40 E3        30.03S
PETERSBURG*    MOSUNNY   86  61  42 N7        30.05S

$$

VAZ036>039-050-212300-
CENTRAL FOOTHILLS

CITY           SKY/WX    TMP DP  RH WIND       PRES   REMARKS
CHARLOTTESVILL MOSUNNY   85  62  46 E5        30.03S
CULPEPER*      MOSUNNY   82  66  58 CALM      30.04R
ORANGE*        MOSUNNY   81  63  54 CALM      30.03R
GORDONSVILLE*  MOSUNNY   81  65  58 NE5       30.02S
WARRENTON*     SUNNY     82  57  42 N5        30.03R

$$

VAZ055>057-212300-
NORTH AND CENTRAL PIEDMONT

CITY           SKY/WX    TMP DP  RH WIND       PRES   REMARKS
FREDERICKSBRG* SUNNY     83  64  52 N6        30.01R
STAFFORD*      SUNNY     78  68  71 CALM      30.06R

$$

NCZ024-NYZ072-PAZ021-071-VAZ022-071-212300-
OTHER REGIONAL OBSERVATIONS

CITY           SKY/WX    TMP DP  RH WIND       PRES   REMARKS
NEW YORK CITY  CLOUDY    79  60  52 VRB5      30.02S
PHILADELPHIA   PTSUNNY   84  60  44 N10       29.99R
PITTSBURGH     MOSUNNY   86  61  42 CALM      30.08S
ROANOKE        MOSUNNY   83  63  50 SE5       30.06S
RICHMOND       MOSUNNY   85  63  47 NE9       30.00S
RALEIGH        CLOUDY    77  68  73 CALM      30.01S

$$

ANZ530>537-212300-
MARINE OBSERVATIONS

STATION/POSITION TIME  TEMP    WIND        PRES
                       AIR SEA DIR/SP/G
                 (UTC) (F)     (DEG/KT/KT) (MB)
THOMAS PT LIGHT  2200   82 76     CALM       N/A
BALT KEY BRIDGE  2148   80     140/  6/  8 1015.8R
COVE POINT       2148   79      10/  5/  5 1016.7S
LEWISETTA        2148   81 77   10/  3/  5 1015.8S
SOLOMONS ISLAND  2148   81 77   10/  6/  8 1015.6S
PINEY POINT      2148          350/  4/  5   N/A

$$

Hourly Weather Roundup from: NOAA-NWS
Script developed by: El Dorado Weather & modified by: SE Lincoln Weather